Details From KCNO - Chino
To KPSP - Palm Springs Intl
Flight Number -
Tags generated
Created
Modified
Stats Distance 57 nm / 106 km
Max Altitude 6,500 ft / 1,981 m
Waypoints 3
Social Downloads 2
Likes 0
Share VATSIM

Download

Looking for another format? Having issues loading an existing format? Contact us
Advertisement - Login to hide

Notes

Basic altitude profile: - Ascent Rate: 2500ft/min - Ascent Speed: 250kts - Cruise Altitude: 35000ft - Cruise Speed: 420kts - Descent Rate: 1500ft/min - Descent Speed: 250kts Options: - Use NATs: yes - Use PACOTS: yes - Use low airways: yes - Use high airways: yes

Route

KCNO SETER KPSP

ID Type Via Altitude Latitude Longitude Leg Dist Tot Dist Heading (true) Name
O KCNO APT - 0 ft / 0 m 33.97495˚ -117.63668˚ - 0 nm - Chino
SETER FIX - 6,500 ft / 1,981 m 33.90101˚ -117.10913˚ 26 nm 26 nm 99° / 100° -
O KPSP APT - 0 ft / 0 m 33.82968˚ -116.50622˚ 30 nm 57 nm 98° / 98° Palm Springs Intl

Altitude Profile

Advertisement - Login to hide

KCNO

Details ICAO KCNO
Name Chino
Region United States
Timezone America/Los_Angeles (UTC-7.0)
Stats Elevation 650 ft / 198 m (AMSL)
Location 33.974954° -117.636684°
Runways 3
Magnetic Variation 11.816° E

METAR

KCNO 262053Z 30006KT 10SM BKN040 OVC055 21/09 A3000 RMK AO2 SLP156 T02060094 56010

Decode

TAF

Not found

Departure Runways

ID Width Length Bearing (true) Bearing (mag) Surface Threshold Offset Overrun Length
03 151 ft / 46 m 4,921 ft / 1,500 m 44.28° 32.46° Asphalt 0 ft / 0 m 951 ft / 290 m
08L 151 ft / 46 m 4,849 ft / 1,478 m 89.42° 77.60° Asphalt 0 ft / 0 m 200 ft / 61 m
08R 151 ft / 46 m 6,987 ft / 2,130 m 89.42° 77.60° Asphalt 0 ft / 0 m 200 ft / 61 m
21 151 ft / 46 m 4,921 ft / 1,500 m 224.28° 212.46° Asphalt 0 ft / 0 m 351 ft / 107 m
26L 151 ft / 46 m 6,987 ft / 2,130 m 269.43° 257.61° Asphalt 0 ft / 0 m 220 ft / 67 m
26R 151 ft / 46 m 4,849 ft / 1,478 m 269.42° 257.60° Asphalt 0 ft / 0 m 0 ft / 0 m

KPSP

Details ICAO KPSP (PSP)
Name Palm Springs Intl
Region United States
Timezone America/Los_Angeles (UTC-7.0)
Stats Elevation 477 ft / 145 m (AMSL)
Location 33.829677° -116.506218°
Runways 2
Magnetic Variation 11.540° E

METAR

KPSP 262053Z 32018G29KT 10SM CLR 28/05 A2984 RMK AO2 PK WND 33031/2033 SLP100 T02780050 58015 $

Decode

TAF

KPSP 261734Z 2618/2718 33015G25KT P6SM SKC FM262000 32020G33KT 6SM BLDU SKC FM270800 30009KT P6SM SKC

Decode

Destination Runways

ID Width Length Bearing (true) Bearing (mag) Surface Threshold Offset Overrun Length
13L 75 ft / 23 m 4,958 ft / 1,511 m 143.52° 131.98° Asphalt 0 ft / 0 m 151 ft / 46 m
13R 151 ft / 46 m 10,012 ft / 3,052 m 143.52° 131.98° Asphalt 2,999 ft / 914 m 200 ft / 61 m
31L 151 ft / 46 m 10,012 ft / 3,052 m 323.53° 311.99° Asphalt 1,499 ft / 457 m 200 ft / 61 m
31R 75 ft / 23 m 4,958 ft / 1,511 m 323.53° 311.99° Asphalt 0 ft / 0 m 151 ft / 46 m

Popular Alternatives